When you browse on this site, cookies collect data to enhance your experience and personalize the content and advertising you see.
Visit our Privacy Policy to learn more. By continuing to use the site, you agree to this use of cookies and data.
EN

Hourly Weather Zelenyi Bir

Today, 12 August, Wednesday

Time Temperature Precipitation Wind Pressure Humidity
00:00 +18°C° 0 mm 3 mps 744 mmHg 86%
01:00 +17°C° 0 mm 3 mps 744 mmHg 89%
02:00 +17°C° 0 mm 3 mps 744 mmHg 91%
03:00 +16°C° 0 mm 3 mps 744 mmHg 90%
04:00 +16°C° 0 mm 3 mps 744 mmHg 90%
05:00 +14°C° 0 mm 3 mps 744 mmHg 89%
06:00 +15°C° 0 mm 4 mps 745 mmHg 84%
07:00 +17°C° 0 mm 4 mps 745 mmHg 79%
08:00 +17°C° 0 mm 4 mps 745 mmHg 74%
09:00 +18°C° 0 mm 4 mps 745 mmHg 67%
10:00 +19°C° 0 mm 4 mps 746 mmHg 61%
11:00 +20°C° 0 mm 5 mps 746 mmHg 54%
12:00 +21°C° 0 mm 5 mps 746 mmHg 53%
13:00 +21°C° 0 mm 5 mps 746 mmHg 52%
14:00 +21°C° 0 mm 4 mps 746 mmHg 50%
15:00 +21°C° 0 mm 4 mps 746 mmHg 53%
16:00 +20°C° 0 mm 4 mps 746 mmHg 55%
17:00 +20°C° 0 mm 4 mps 746 mmHg 57%
18:00 +18°C° 0 mm 3 mps 746 mmHg 63%
19:00 +17°C° 0 mm 3 mps 746 mmHg 68%
20:00 +16°C° 0 mm 3 mps 746 mmHg 74%
21:00 +14°C° 0 mm 3 mps 746 mmHg 76%
22:00 +13°C° 0 mm 3 mps 746 mmHg 79%
23:00 +13°C° 0 mm 3 mps 747 mmHg 81%

Tomorrow, 13 August, Thursday

Time Temperature Precipitation Wind Pressure Humidity
00:00 +13°C° 0 mm 2 mps 747 mmHg 83%
01:00 +13°C° 0 mm 2 mps 747 mmHg 84%
02:00 +12°C° 0 mm 2 mps 747 mmHg 85%
03:00 +12°C° 0 mm 2 mps 747 mmHg 87%
04:00 +11°C° 0 mm 3 mps 746 mmHg 89%
05:00 +10°C° 0 mm 3 mps 746 mmHg 91%
06:00 +12°C° 0 mm 3 mps 746 mmHg 84%
07:00 +14°C° 0 mm 3 mps 747 mmHg 76%
08:00 +17°C° 0 mm 3 mps 747 mmHg 69%
09:00 +18°C° 0 mm 4 mps 747 mmHg 63%
10:00 +19°C° 0 mm 4 mps 746 mmHg 56%
11:00 +21°C° 0 mm 4 mps 746 mmHg 50%
12:00 +21°C° 0 mm 4 mps 746 mmHg 51%
13:00 +21°C° 0 mm 3 mps 746 mmHg 51%
14:00 +21°C° 0 mm 3 mps 746 mmHg 52%
15:00 +21°C° 0 mm 3 mps 746 mmHg 53%
16:00 +20°C° 0 mm 3 mps 746 mmHg 55%
17:00 +20°C° 0 mm 3 mps 746 mmHg 57%
18:00 +19°C° 0 mm 3 mps 746 mmHg 62%
19:00 +17°C° 0 mm 3 mps 746 mmHg 67%
20:00 +16°C° 0 mm 2 mps 746 mmHg 73%
21:00 +15°C° 0 mm 2 mps 746 mmHg 75%
22:00 +15°C° 0 mm 2 mps 746 mmHg 77%
23:00 +14°C° 0 mm 2 mps 746 mmHg 79%

Day after tomorrow, 14 August, Friday

Time Temperature Precipitation Wind Pressure Humidity
00:00 +13°C° 0 mm 2 mps 746 mmHg 81%
01:00 +13°C° 0 mm 2 mps 746 mmHg 83%
02:00 +12°C° 0 mm 2 mps 746 mmHg 84%
03:00 +12°C° 0 mm 2 mps 746 mmHg 85%
04:00 +10°C° 0 mm 2 mps 746 mmHg 86%
05:00 +10°C° 0 mm 2 mps 746 mmHg 86%
06:00 +13°C° 0 mm 2 mps 746 mmHg 79%
07:00 +13°C° 0 mm 3 mps 746 mmHg 72%
08:00 +16°C° 0 mm 3 mps 746 mmHg 66%
09:00 +17°C° 0 mm 3 mps 746 mmHg 60%
10:00 +19°C° 0 mm 3 mps 747 mmHg 54%
11:00 +20°C° 0 mm 4 mps 747 mmHg 48%
12:00 +20°C° 0 mm 3 mps 747 mmHg 49%
13:00 +20°C° 0 mm 3 mps 746 mmHg 49%
14:00 +20°C° 0 mm 3 mps 746 mmHg 49%
15:00 +20°C° 0 mm 3 mps 746 mmHg 51%
16:00 +20°C° 0 mm 3 mps 746 mmHg 53%
17:00 +20°C° 0 mm 3 mps 746 mmHg 55%
18:00 +18°C° 0 mm 2 mps 746 mmHg 60%
19:00 +17°C° 0 mm 2 mps 746 mmHg 65%
20:00 +15°C° 0 mm 2 mps 746 mmHg 71%
21:00 +14°C° 0 mm 1 mps 747 mmHg 72%
22:00 +14°C° 0 mm 1 mps 747 mmHg 73%
23:00 +13°C° 0 mm 1 mps 747 mmHg 74%

15 August, Saturday

Time Temperature Precipitation Wind Pressure Humidity
00:00 +13°C° 0 mm 1 mps 747 mmHg 75%
01:00 +12°C° 0 mm 1 mps 747 mmHg 76%
02:00 +11°C° 0 mm 0 mps 747 mmHg 77%
03:00 +11°C° 0 mm 0 mps 747 mmHg 78%
04:00 +11°C° 0 mm 1 mps 747 mmHg 79%
05:00 +11°C° 0 mm 1 mps 747 mmHg 80%
06:00 +13°C° 0 mm 1 mps 747 mmHg 74%
07:00 +15°C° 0 mm 1 mps 748 mmHg 68%
08:00 +16°C° 0 mm 1 mps 748 mmHg 62%
09:00 +19°C° 0 mm 1 mps 748 mmHg 57%
10:00 +19°C° 0 mm 2 mps 748 mmHg 53%
11:00 +20°C° 0 mm 2 mps 748 mmHg 48%
12:00 +21°C° 0 mm 2 mps 748 mmHg 46%
13:00 +21°C° 0 mm 2 mps 748 mmHg 45%
14:00 +23°C° 0 mm 2 mps 748 mmHg 43%
15:00 +23°C° 0 mm 2 mps 748 mmHg 44%
16:00 +23°C° 0 mm 2 mps 747 mmHg 45%
17:00 +23°C° 0 mm 2 mps 747 mmHg 46%
18:00 +21°C° 0 mm 1 mps 747 mmHg 52%
19:00 +19°C° 0 mm 1 mps 747 mmHg 57%
20:00 +16°C° 0 mm 1 mps 747 mmHg 63%
21:00 +15°C° 0 mm 1 mps 747 mmHg 65%
22:00 +15°C° 0 mm 1 mps 748 mmHg 67%
23:00 +13°C° 0 mm 0 mps 748 mmHg 70%

16 August, Sunday

Time Temperature Precipitation Wind Pressure Humidity
00:00 +13°C° 0 mm 0 mps 748 mmHg 71%
01:00 +12°C° 0 mm 0 mps 748 mmHg 72%
02:00 +12°C° 0 mm 0 mps 748 mmHg 73%
03:00 +12°C° 0 mm 0 mps 748 mmHg 74%
04:00 +11°C° 0 mm 0 mps 748 mmHg 75%
05:00 +11°C° 0 mm 0 mps 747 mmHg 76%
06:00 +13°C° 0 mm 0 mps 748 mmHg 69%
07:00 +15°C° 0 mm 0 mps 748 mmHg 63%
08:00 +18°C° 0 mm 0 mps 748 mmHg 56%
09:00 +19°C° 0 mm 0 mps 748 mmHg 51%
10:00 +21°C° 0 mm 0 mps 749 mmHg 47%
11:00 +23°C° 0 mm 0 mps 749 mmHg 42%
12:00 +25°C° 0 mm 1 mps 748 mmHg 40%
13:00 +26°C° 0 mm 1 mps 748 mmHg 39%
14:00 +26°C° 0 mm 1 mps 748 mmHg 37%
15:00 +26°C° 0 mm 1 mps 748 mmHg 39%
16:00 +26°C° 0 mm 1 mps 747 mmHg 41%
17:00 +25°C° 0 mm 1 mps 747 mmHg 43%
18:00 +23°C° 0 mm 1 mps 747 mmHg 48%
19:00 +21°C° 0 mm 1 mps 747 mmHg 53%
20:00 +20°C° 0 mm 1 mps 747 mmHg 58%
21:00 +19°C° 0 mm 1 mps 747 mmHg 60%
22:00 +19°C° 0 mm 1 mps 747 mmHg 61%
23:00 +18°C° 0 mm 1 mps 747 mmHg 62%

17 August, Monday

Time Temperature Precipitation Wind Pressure Humidity
00:00 +18°C° 0 mm 1 mps 747 mmHg 64%
01:00 +18°C° 0 mm 1 mps 747 mmHg 66%
02:00 +16°C° 0 mm 1 mps 747 mmHg 67%
03:00 +16°C° 0 mm 1 mps 747 mmHg 69%
04:00 +16°C° 0 mm 1 mps 747 mmHg 71%
05:00 +15°C° 0 mm 1 mps 747 mmHg 73%
06:00 +18°C° 0 mm 1 mps 747 mmHg 69%
07:00 +20°C° 0 mm 1 mps 747 mmHg 64%
08:00 +22°C° 0 mm 1 mps 747 mmHg 60%
09:00 +24°C° 0 mm 1 mps 747 mmHg 55%
10:00 +25°C° 0 mm 1 mps 747 mmHg 50%
11:00 +27°C° 0 mm 1 mps 747 mmHg 45%
12:00 +27°C° 0 mm 1 mps 747 mmHg 43%
13:00 +28°C° 0 mm 1 mps 747 mmHg 41%
14:00 +28°C° 0 mm 1 mps 746 mmHg 38%
15:00 +28°C° 0 mm 1 mps 746 mmHg 39%
16:00 +28°C° 0 mm 1 mps 746 mmHg 40%
17:00 +28°C° 0 mm 1 mps 745 mmHg 41%
18:00 +26°C° 0 mm 1 mps 745 mmHg 45%
19:00 +24°C° 0 mm 1 mps 745 mmHg 49%
20:00 +20°C° 0 mm 0 mps 745 mmHg 54%
21:00 +21°C° 0 mm 1 mps 745 mmHg 55%
22:00 +21°C° 0 mm 1 mps 745 mmHg 56%
23:00 +19°C° 0 mm 2 mps 745 mmHg 58%
Show more